Weather History for KDIJ - May, 2013

Change the Weather History Date:

Saturday, May 25, 2013

  Actual Average (KRXE) Record (KRXE)
Temperature  
Mean Temperature 50 °F 55 °F  
Max Temperature 68 °F 69 °F 87 °F (2003)
Min Temperature 32 °F 42 °F 34 °F (2005)
Degree Days  
Heating Degree Days 15 10  
Month to date heating degree days 336  
Since 1 July heating degree days 7901  
Cooling Degree Days 0 0  
Month to date cooling degree days 0  
Year to date cooling degree days 0  
Moisture  
Dew Point 29 °F    
Average Humidity 45    
Maximum Humidity 76    
Minimum Humidity 19    
Precipitation  
Precipitation 0.00 in 0.06 in - ()
Month to date precipitation 1.37  
Year to date precipitation 5.48  
Sea Level Pressure  
Sea Level Pressure 29.83 in    
Wind  
Wind Speed 6 mph (SSE)    
Max Wind Speed 20 mph    
Max Gust Speed 28 mph    
Visibility 10 miles    
Events      
T = Trace of Precipitation, MM = Missing Value Source: NWS Daily Summary

Daily Weather History Graph

Daily Weather History Graph

Search for Another Location

Airport or City:

Trip Planner

Search our weather history database for the weather conditions in past years. The results will help you decide how hot, cold, wet, or windy it might be!

Date:

Astronomy

May. 25, 2013 Rise Set
Actual Time 5:49 AM MDT 8:53 PM MDT
Civil Twilight 5:15 AM MDT 9:28 PM MDT
Nautical Twilight 4:31 AM MDT 10:12 PM MDT
Astronomical Twilight 3:38 AM MDT 11:05 PM MDT
Moon 9:44 PM MDT 6:20 AM MDT
Length of Visible Light 16h 12m
Length of Day
15h 03m
Waxing Gibbous, 99% of the Moon is Illuminated
May 25
Waxing Gibbous
May 31
Last Quarter
Jun 8
New
Jun 16
First Quarter
Jun 23
Full

Hourly Weather History & Observations

Time (MDT) Temp. Windchill Dew Point Humidity Pressure Visibility Wind Dir Wind Speed Gust Speed Precip Events Conditions
12:56 AM 38.8 °F - 27.1 °F 63% 29.88 in 10.0 mi Calm Calm - N/A   Clear
1:56 AM 36.0 °F 33.3 °F 29.1 °F 76% 29.87 in 10.0 mi NE 3.5 mph - N/A   Clear
2:56 AM 38.8 °F 32.6 °F 26.1 °F 60% 29.82 in 10.0 mi NE 9.2 mph - N/A   Clear
3:56 AM 36.9 °F 32.2 °F 24.1 °F 60% 29.83 in 10.0 mi ESE 5.8 mph - N/A   Clear
4:56 AM 32.9 °F - 26.1 °F 76% 29.83 in 10.0 mi Calm Calm - N/A   Clear
5:56 AM 34.0 °F - 26.1 °F 73% 29.83 in 10.0 mi Calm Calm - N/A   Clear
6:56 AM 39.9 °F 34.5 °F 27.1 °F 60% 29.80 in 10.0 mi ENE 8.1 mph - N/A   Clear
7:56 AM 50.9 °F - 32.9 °F 50% 29.76 in 10.0 mi Calm Calm - N/A   Clear
8:56 AM 56.8 °F - 27.1 °F 32% 29.76 in 10.0 mi Calm Calm - N/A   Clear
9:56 AM 63.9 °F - 24.1 °F 22% 29.75 in 10.0 mi South 18.4 mph 27.6 mph N/A   Clear
10:56 AM 65.8 °F - 24.1 °F 21% 29.76 in 10.0 mi SW 17.3 mph 25.3 mph N/A   Partly Cloudy
11:56 AM 65.8 °F - 25.2 °F 21% 29.77 in 10.0 mi SSW 16.1 mph - N/A   Clear
12:19 PM 68.0 °F - 26.6 °F 21% 29.96 in 10.0 mi SSW 19.6 mph 25.3 mph N/A   Scattered Clouds
12:56 PM 68.9 °F - 25.2 °F 19% 29.78 in 10.0 mi SSW 17.3 mph 23.0 mph N/A   Scattered Clouds
1:56 PM 65.8 °F - 36.0 °F 33% 29.81 in 10.0 mi Variable 4.6 mph - N/A   Scattered Clouds
2:56 PM 63.9 °F - 34.0 °F 33% 29.81 in 10.0 mi NNW 13.8 mph 19.6 mph N/A   Mostly Cloudy
3:56 PM 63.9 °F - 31.1 °F 29% 29.84 in 10.0 mi SW 16.1 mph - N/A   Partly Cloudy
4:56 PM 63.0 °F - 38.8 °F 41% 29.86 in 10.0 mi ENE 5.8 mph - N/A   Mostly Cloudy
5:56 PM 63.9 °F - 31.1 °F 29% 29.86 in 10.0 mi WSW 10.4 mph - N/A   Mostly Cloudy
6:56 PM 59.9 °F - 28.0 °F 30% 29.87 in 10.0 mi NW 8.1 mph - N/A   Overcast
7:56 PM 59.9 °F - 29.1 °F 31% 29.84 in 10.0 mi NE 6.9 mph - N/A   Scattered Clouds
8:56 PM 47.8 °F - 34.9 °F 61% 29.85 in 10.0 mi East 6.9 mph - N/A   Clear
9:56 PM 45.9 °F 40.4 °F 32.0 °F 58% 29.84 in 10.0 mi East 11.5 mph - N/A   Clear
10:56 PM 45.0 °F 42.6 °F 31.1 °F 58% 29.84 in 10.0 mi South 4.6 mph - N/A   Clear
11:56 PM 43.9 °F 40.5 °F 32.0 °F 63% 29.83 in 10.0 mi West 5.8 mph - N/A   Clear